Aberdeen / Amory, MS

12:16 PM CDT on April 26, 2017 (GMT -0500)
Aberdeen / Amory

Weather History for KM40 - October, 2012

Change the Weather History Date:

Saturday, October 6, 2012

  Actual Average (KCBM) Record (KCBM)
Temperature  
Mean Temperature 56 °F -  
Max Temperature 62 °F 76 °F 91 °F (1997)
Min Temperature 51 °F 54 °F 39 °F (2010)
Degree Days  
Heating Degree Days 8    
Growing Degree Days 6 (Base 50)    
Moisture  
Dew Point 39 °F    
Average Humidity 54    
Maximum Humidity 59    
Minimum Humidity 51    
Precipitation  
Precipitation 0.23 in - - ()
Sea Level Pressure  
Sea Level Pressure 30.10 in    
Wind  
Wind Speed 6 mph ()    
Max Wind Speed 18 mph    
Max Gust Speed 28 mph    
Visibility 8.0 miles    
Events Rain    
Averages and records for this station are not official NWS values.
T = Trace of Precipitation, MM = Missing Value Source: Averaged Metar Reports

Daily Weather History Graph

Daily Weather History Graph

Search for Another Location

Airport or City:

Trip Planner

Search our weather history database for the weather conditions in past years. The results will help you decide how hot, cold, wet, or windy it might be!

Date:

Astronomy

Oct. 06, 2012 Rise Set
Actual Time 6:52 AM CDT 6:30 PM CDT
Civil Twilight 6:27 AM CDT 6:55 PM CDT
Nautical Twilight 5:58 AM CDT 7:24 PM CDT
Astronomical Twilight 5:29 AM CDT 7:53 PM CDT
Moon 10:58 PM CDT (10/6) 12:34 PM CDT (10/6)
Length of Visible Light 12h 28m
Length of Day
11h 38m
Waning Gibbous, 65% of the Moon is Illuminated
Oct 6
Waning Gibbous
Oct 8
Last Quarter
Oct 15
New
Oct 21
First Quarter
Oct 29
Full

Hourly Weather History & Observations

Time (CDT) Temp. Dew Point Humidity Pressure Visibility Wind Dir Wind Speed Gust Speed Precip Events Conditions
12:15 AM 60.8 °F 44.6 °F 55% 30.02 in 7.0 mi Calm Calm - N/A   Clear
12:35 AM 60.8 °F 44.6 °F 55% 30.02 in 4.0 mi Calm Calm - N/A   Haze
12:55 AM 59.0 °F 42.8 °F 55% 30.02 in 1.5 mi Calm Calm - N/A   Haze
1:15 AM 59.0 °F 42.8 °F 55% 30.02 in 2.5 mi Calm Calm - N/A   Haze
1:35 AM 59.0 °F 42.8 °F 55% 30.01 in 1.8 mi Calm Calm - N/A   Haze
1:55 AM 60.8 °F 44.6 °F 55% 30.00 in 5.0 mi Calm Calm - N/A   Haze
2:15 AM 60.8 °F 44.6 °F 55% 30.02 in 5.0 mi NNW 6.9 mph - N/A   Haze
2:35 AM 60.8 °F 44.6 °F 55% 30.02 in 4.0 mi Calm Calm - N/A   Haze
2:55 AM 60.8 °F 42.8 °F 52% 30.02 in 2.5 mi Calm Calm - N/A   Haze
3:15 AM 60.8 °F 44.6 °F 55% 30.03 in 4.0 mi NNW 6.9 mph - N/A   Haze
3:35 AM 62.6 °F 44.6 °F 52% 30.05 in 8.0 mi North 18.4 mph 23.0 mph N/A   Overcast
3:55 AM 60.8 °F 42.8 °F 52% 30.04 in 10.0 mi North 12.7 mph 17.3 mph N/A   Overcast
4:15 AM 57.2 °F 41.0 °F 55% 30.06 in 9.0 mi North 16.1 mph 27.6 mph N/A   Overcast
4:35 AM 55.4 °F 39.2 °F 54% 30.06 in 10.0 mi North 12.7 mph 27.6 mph N/A   Overcast
4:55 AM 53.6 °F 37.4 °F 54% 30.07 in 9.0 mi North 12.7 mph - N/A   Overcast
5:15 AM 53.6 °F 37.4 °F 54% 30.08 in 10.0 mi North 8.1 mph - N/A   Overcast
5:35 AM 53.6 °F 37.4 °F 54% 30.10 in 10.0 mi NNW 11.5 mph 20.7 mph N/A   Overcast
5:55 AM 53.6 °F 37.4 °F 54% 30.09 in 10.0 mi North 6.9 mph - N/A   Light Drizzle
6:15 AM 53.6 °F 37.4 °F 54% 30.10 in 3.0 mi North 6.9 mph - 0.03 in   Haze
6:35 AM 53.6 °F 37.4 °F 54% 30.11 in 10.0 mi NNW 6.9 mph - 0.03 in   Overcast
6:55 AM 53.6 °F 37.4 °F 54% 30.09 in 10.0 mi North 9.2 mph - 0.03 in   Overcast
7:15 AM 51.8 °F 35.6 °F 54% 30.12 in 9.0 mi NNW 10.4 mph - N/A   Overcast
7:35 AM 51.8 °F 35.6 °F 54% 30.11 in 9.0 mi North 12.7 mph - N/A   Overcast
7:55 AM 51.8 °F 35.6 °F 54% 30.12 in 10.0 mi North 8.1 mph - N/A   Overcast
8:15 AM 51.8 °F 35.6 °F 54% 30.12 in 10.0 mi North 9.2 mph 17.3 mph N/A   Overcast
8:35 AM 51.8 °F 35.6 °F 54% 30.13 in 10.0 mi North 13.8 mph - N/A   Overcast
8:55 AM 51.8 °F 35.6 °F 54% 30.14 in 9.0 mi North 11.5 mph - N/A   Overcast
9:15 AM 51.8 °F 35.6 °F 54% 30.14 in 9.0 mi North 10.4 mph - N/A   Overcast
9:55 AM 51.8 °F 35.6 °F 54% 30.15 in 10.0 mi North 11.5 mph - N/A   Overcast
10:15 AM 51.8 °F 35.6 °F 54% 30.16 in 10.0 mi North 11.5 mph - N/A   Overcast
10:35 AM 51.8 °F 35.6 °F 54% 30.15 in 10.0 mi North 10.4 mph - N/A   Overcast
10:55 AM 53.6 °F 37.4 °F 54% 30.14 in 10.0 mi North 10.4 mph - N/A   Overcast
11:15 AM 53.6 °F 37.4 °F 54% 30.14 in 10.0 mi NNE 6.9 mph - N/A   Overcast
11:35 AM 53.6 °F 37.4 °F 54% 30.14 in 10.0 mi North 9.2 mph - N/A   Overcast
11:55 AM 55.4 °F 39.2 °F 54% 30.13 in 10.0 mi North 8.1 mph 21.9 mph N/A   Overcast
12:15 PM 55.4 °F 39.2 °F 54% 30.13 in 10.0 mi NNE 8.1 mph - N/A   Overcast
12:35 PM 57.2 °F 39.2 °F 51% 30.12 in 9.0 mi North 5.8 mph - N/A   Overcast
12:55 PM 55.4 °F 39.2 °F 54% 30.11 in 10.0 mi North 8.1 mph - N/A   Overcast
1:15 PM 57.2 °F 41.0 °F 55% 30.11 in 9.0 mi NNW 6.9 mph - N/A   Overcast
1:35 PM 59.0 °F 42.8 °F 55% 30.10 in 9.0 mi NNE 5.8 mph - N/A   Overcast
1:55 PM 57.2 °F 39.2 °F 51% 30.09 in 10.0 mi NNE 6.9 mph - N/A   Overcast
2:15 PM 57.2 °F 41.0 °F 55% 30.09 in 10.0 mi North 6.9 mph - N/A   Overcast
2:35 PM 57.2 °F 42.8 °F 59% 30.09 in 10.0 mi NNW 6.9 mph - N/A   Overcast
2:55 PM 57.2 °F 42.8 °F 59% 30.09 in 10.0 mi North 9.2 mph - N/A   Overcast
3:15 PM 57.2 °F 42.8 °F 59% 30.09 in 10.0 mi North 6.9 mph - N/A   Overcast
3:35 PM 59.0 °F 42.8 °F 55% 30.08 in 10.0 mi North 10.4 mph - N/A   Overcast
3:55 PM 57.2 °F 42.8 °F 59% 30.08 in 10.0 mi North 8.1 mph - N/A   Overcast
4:15 PM 57.2 °F 41.0 °F 55% 30.08 in 9.0 mi North 8.1 mph - N/A   Overcast
4:35 PM 57.2 °F 41.0 °F 55% 30.08 in 9.0 mi North 6.9 mph - N/A Rain Light Rain
4:55 PM 55.4 °F 39.2 °F 54% 30.06 in 1.8 mi ESE 4.6 mph - 0.01 in Rain Light Rain
5:15 PM 55.4 °F 37.4 °F 51% 30.07 in 1.2 mi NNW 5.8 mph - 0.04 in Rain Light Rain
5:35 PM 53.6 °F 37.4 °F 54% 30.10 in 1.8 mi NW 5.8 mph - 0.07 in Rain Rain
5:55 PM 53.6 °F 37.4 °F 54% 30.11 in 3.0 mi NW 5.8 mph - 0.08 in Rain Light Rain
6:15 PM 53.6 °F 37.4 °F 54% 30.10 in 1.2 mi Calm Calm - 0.06 in Rain Heavy Rain
6:35 PM 53.6 °F 37.4 °F 54% 30.10 in 5.0 mi Calm Calm - 0.10 in   Light Drizzle
6:55 PM 53.6 °F 37.4 °F 54% 30.10 in 5.0 mi Calm Calm - 0.11 in   Haze
7:15 PM 53.6 °F 37.4 °F 54% 30.11 in 6.0 mi Calm Calm - N/A   Haze
7:55 PM 51.8 °F 35.6 °F 54% 30.11 in 10.0 mi NNE 10.4 mph - N/A   Scattered Clouds
8:15 PM 51.8 °F 35.6 °F 54% 30.12 in 10.0 mi North 9.2 mph - N/A   Scattered Clouds
8:35 PM 51.8 °F 35.6 °F 54% 30.14 in 10.0 mi North 9.2 mph - N/A   Mostly Cloudy
8:55 PM 51.8 °F 35.6 °F 54% 30.13 in 10.0 mi North 8.1 mph - N/A   Overcast
9:15 PM 51.8 °F 35.6 °F 54% 30.13 in 10.0 mi North 8.1 mph - N/A   Overcast
9:35 PM 51.8 °F 35.6 °F 54% 30.12 in 10.0 mi NNE 5.8 mph - N/A   Overcast
9:55 PM 51.8 °F 35.6 °F 54% 30.13 in 10.0 mi North 8.1 mph - N/A   Overcast
10:15 PM 51.8 °F 35.6 °F 54% 30.12 in 10.0 mi North 8.1 mph - N/A   Overcast
10:35 PM 51.8 °F 35.6 °F 54% 30.13 in 10.0 mi North 6.9 mph - N/A   Overcast
11:15 PM 51.8 °F 35.6 °F 54% 30.15 in 10.0 mi North 8.1 mph - N/A   Mostly Cloudy
11:35 PM 51.8 °F 35.6 °F 54% 30.15 in 10.0 mi North 6.9 mph - N/A   Mostly Cloudy
11:55 PM 51.8 °F 35.6 °F 54% 30.14 in 10.0 mi North 6.9 mph - N/A   Mostly Cloudy